STARLINK-2605 (48392 NORAD) Tracking and Keplerian Element Data

This shows tracking and keplerian element data for the satellite.

Feedback or suggestion? Click here.




ElementValue
Catalog48392
NameSTARLINK-2605
Epoch Orbit1475
Epoch Day215.25002315
Epoch Year2021
RAAN320.9066
Inclination53.0528
Eccentricity0.000144
Argument of Perigee75.3478
Mean Anonmoly207.1368
Mean Motion15.06394682
Decay Rate-8.9E-07
L11 48392U 21038AR 21215.25002315 -.00000089 00000-0 12936-4 0 9992
L22 48392 53.0528 320.9066 0001440 75.3478 207.1368 15.06394682 14758

Live tracking and technical data element details for STARLINK-2605 (NORAD 48392). STARLINK-2605 can be tracked NOW for your location showing map with azimuth and elevation plus other details from your city location.

Track the satellite on the map from your city or location and see movement details for azimuth, elevation, latitude, longitude, range, height, and movement on the map or in text.







IsCatalogInMostPopularTable: catalog: 48392, numindb: 30
Update: records affected: 1



GetName: 48392 STARLINK-2605

Hit Count: updated at: Tue, 03 Aug 2021 21:42:00 GMT